Location: Newark
(7.0858°N, 171.3717°E)
Time: 02:37:55
(UTC+00:00)

Transit 2A - Pass Details

Date: 02 December 2020
Orbit: 598 x 960 km, 66.7° (Epoch: 20 January)

Event Time Altitude Azimuth Distance (km) Brightness Sun altitude
Rises 03:27:52 0° 191° (S) 3,550 10.0 36.4°
Reaches altitude 10° 03:30:23 10° 187° (S) 2,638 9.4 35.9°
Maximum altitude 03:36:30 58° 109° (ESE) 1,104 7.1 34.6°
Drops below altitude 10° 03:42:41 10° 31° (NNE) 2,676 8.4 33.3°
Sets 03:45:15 0° 28° (NNE) 3,604 9.0 32.8°
